Weather History for Edinburgh Airport, United Kingdom

Change the Weather History Date:

Sunday, January 19, 2014

  Actual Average Record
Temperature  
Mean Temperature 40 °F -  
Max Temperature 46 °F 44 °F 53 °F (2004)
Min Temperature 33 °F 32 °F 24 °F (2013)
Degree Days  
Heating Degree Days 26    
Moisture  
Dew Point 38 °F    
Average Humidity 86    
Maximum Humidity 93    
Minimum Humidity 76    
Precipitation  
Precipitation 0.00 in 0.06 in - ()
Sea Level Pressure  
Sea Level Pressure 29.29 in    
Wind  
Wind Speed 7 mph ()    
Max Wind Speed 12 mph    
Max Gust Speed -    
Visibility 6.2 miles    
Events Rain    
Averages and records for this station are not official NWS values.
T = Trace of Precipitation, MM = Missing Value Source: Averaged Metar Reports

Daily Weather History Graph

Daily Weather History Graph

Search for Another Location

Airport:

Trip Planner

Search our weather history database for the weather conditions in past years. The results will help you decide how hot, cold, wet, or windy it might be!

Date:

Astronomy

Jan. 19, 2014 Rise Set
Actual Time 8:29 AM GMT 4:19 PM GMT
Civil Twilight 7:45 AM GMT 5:03 PM GMT
Nautical Twilight 6:59 AM GMT 5:49 PM GMT
Astronomical Twilight 6:14 AM GMT 6:34 PM GMT
Moon 8:30 PM GMT (1/19) 9:10 AM GMT (1/19)
Length of Visible Light 9h 17m
Length of Day
7h 49m
Waning Gibbous, 90% of the Moon is Illuminated
Jan 19
Waning Gibbous
Jan 24
Last Quarter
Jan 30
New
Feb 6
First Quarter
Feb 14
Full

Hourly Weather History & Observations

Time (GMT) Temp. Windchill Dew Point Humidity Pressure Visibility Wind Dir Wind Speed Gust Speed Precip Events Conditions
12:20 AM 44.6 °F 40.2 °F 41.0 °F 87% 29.24 in 6.2 mi ENE 8.1 mph - N/A   Overcast
12:50 AM 44.6 °F 39.2 °F 41.0 °F 87% 29.21 in 6.2 mi East 10.4 mph - N/A   Overcast
1:20 AM 44.6 °F 39.7 °F 41.0 °F 87% 29.21 in 6.2 mi East 9.2 mph - N/A   Overcast
1:50 AM 44.6 °F 39.7 °F 41.0 °F 87% 29.21 in 6.2 mi East 9.2 mph - N/A   Overcast
2:20 AM 44.6 °F 38.8 °F 41.0 °F 87% 29.21 in 6.2 mi East 11.5 mph - N/A   Mostly Cloudy
2:50 AM 44.6 °F 38.8 °F 41.0 °F 87% 29.21 in 6.2 mi ENE 11.5 mph - N/A   Overcast
3:20 AM 44.6 °F 39.2 °F 41.0 °F 87% 29.21 in 6.2 mi ENE 10.4 mph - N/A   Overcast
3:50 AM 44.6 °F 39.7 °F 41.0 °F 87% 29.21 in 6.2 mi ENE 9.2 mph - N/A   Overcast
4:20 AM 44.6 °F 38.8 °F 41.0 °F 87% 29.21 in 6.2 mi East 11.5 mph - N/A Rain Light Rain
4:50 AM 44.6 °F 38.8 °F 41.0 °F 87% 29.21 in 5.6 mi East 11.5 mph - N/A Rain Light Rain
5:20 AM 44.6 °F 40.2 °F 42.8 °F 93% 29.21 in 5.6 mi ESE 8.1 mph - N/A Rain Light Rain
5:50 AM 42.8 °F 37.5 °F 41.0 °F 93% 29.21 in 6.2 mi East 9.2 mph - N/A Rain Light Rain
6:20 AM 44.6 °F 38.8 °F 41.0 °F 87% 29.21 in 6.2 mi East 11.5 mph - N/A   Mostly Cloudy
6:50 AM 44.6 °F 40.2 °F 41.0 °F 87% 29.21 in 6.2 mi East 8.1 mph - N/A Rain Light Rain
7:20 AM 44.6 °F 40.2 °F 41.0 °F 87% 29.21 in 6.2 mi ENE 8.1 mph - N/A   Mostly Cloudy
7:50 AM 44.6 °F 40.2 °F 41.0 °F 87% 29.24 in 6.2 mi ENE 8.1 mph - N/A   Overcast
8:20 AM 44.6 °F 39.7 °F 42.8 °F 93% 29.24 in 6.2 mi ENE 9.2 mph - N/A   Overcast
8:50 AM 44.6 °F 41.4 °F 42.8 °F 93% 29.24 in 6.2 mi ENE 5.8 mph - N/A Rain Light Rain
9:20 AM 44.6 °F 40.7 °F 42.8 °F 93% 29.24 in 6.2 mi ENE 6.9 mph - N/A   Mostly Cloudy
9:50 AM 44.6 °F 42.2 °F 42.8 °F 93% 29.27 in 6.2 mi ENE 4.6 mph - N/A   Mostly Cloudy
10:20 AM 44.6 °F 40.7 °F 41.0 °F 87% 29.27 in 6.2 mi SE 6.9 mph - N/A   Mostly Cloudy
10:50 AM 46.4 °F 42.9 °F 39.2 °F 76% 29.27 in 6.2 mi SSE 6.9 mph - N/A   Mostly Cloudy
11:20 AM 46.4 °F 42.9 °F 41.0 °F 81% 29.27 in 6.2 mi SSE 6.9 mph - N/A   Mostly Cloudy
11:50 AM 46.4 °F 44.3 °F 39.2 °F 76% 29.27 in 6.2 mi South 4.6 mph - N/A   Scattered Clouds
12:20 PM 46.4 °F 45.2 °F 41.0 °F 81% 29.27 in 6.2 mi Variable 3.5 mph - N/A   Mostly Cloudy
12:50 PM 46.4 °F 42.9 °F 39.2 °F 76% 29.27 in 6.2 mi SSW 6.9 mph - N/A   Mostly Cloudy
1:20 PM 46.4 °F 42.4 °F 39.2 °F 76% 29.27 in 6.2 mi SSW 8.1 mph - N/A   Mostly Cloudy
1:50 PM 44.6 °F 39.7 °F 39.2 °F 81% 29.27 in 6.2 mi SW 9.2 mph - N/A   Mostly Cloudy
2:20 PM 46.4 °F 42.4 °F 39.2 °F 76% 29.27 in 6.2 mi SW 8.1 mph - N/A   Scattered Clouds
2:50 PM 44.6 °F 38.8 °F 39.2 °F 81% 29.30 in 6.2 mi SW 11.5 mph - N/A   Scattered Clouds
3:20 PM 44.6 °F 38.8 °F 39.2 °F 81% 29.30 in 6.2 mi SW 11.5 mph - N/A   Partly Cloudy
3:50 PM 42.8 °F 38.0 °F 37.4 °F 81% 29.30 in 6.2 mi SW 8.1 mph - N/A   Partly Cloudy
4:20 PM 41.0 °F 38.0 °F 37.4 °F 87% 29.33 in 6.2 mi SW 4.6 mph - N/A   Scattered Clouds
4:50 PM 41.0 °F 39.0 °F 35.6 °F 81% 29.33 in 6.2 mi Variable 3.5 mph - N/A   Partly Cloudy
5:20 PM 39.2 °F - 35.6 °F 87% 29.33 in 6.2 mi West 2.3 mph - N/A   Partly Cloudy
5:50 PM 39.2 °F 35.9 °F 35.6 °F 87% 29.36 in 6.2 mi West 4.6 mph - N/A   Partly Cloudy
6:20 PM 39.2 °F 35.9 °F 33.8 °F 81% 29.36 in 6.2 mi WSW 4.6 mph - N/A   Partly Cloudy
6:50 PM 35.6 °F - 33.8 °F 93% 29.36 in 6.2 mi Variable 2.3 mph - N/A   Partly Cloudy
7:20 PM 35.6 °F 32.8 °F 33.8 °F 93% 29.39 in 6.2 mi Variable 3.5 mph - N/A   Partly Cloudy
7:50 PM 33.8 °F - 32.0 °F 93% 29.39 in - Variable 2.3 mph - N/A   Clear
8:20 PM 33.8 °F - 32.0 °F 93% 29.42 in - NNW 2.3 mph - N/A   Clear
8:50 PM 37.4 °F 31.4 °F 33.8 °F 87% 29.42 in - SSW 8.1 mph - N/A   Clear
9:20 PM 37.4 °F 33.8 °F 33.8 °F 87% 29.42 in - SW 4.6 mph - N/A   Clear
9:50 PM 35.6 °F - 32.0 °F 87% 29.42 in - Variable 2.3 mph - N/A   Clear
10:20 PM 37.4 °F 31.4 °F 33.8 °F 87% 29.44 in 6.2 mi South 8.1 mph - N/A   Partly Cloudy
10:50 PM 37.4 °F 33.8 °F 33.8 °F 87% 29.44 in 6.2 mi SSW 4.6 mph - N/A   Partly Cloudy
11:20 PM 39.2 °F 35.0 °F 33.8 °F 81% 29.44 in - South 5.8 mph - N/A   Clear
11:50 PM 37.4 °F - 33.8 °F 87% 29.44 in - Variable 2.3 mph - N/A   Clear